Regional Weather Roundup
Issued by NWS

Home | Current Version | Previous Version | Text Only | Print | Product List | Glossary On
Versions: 1 2 3 4 5 6 7 8 9 10 11 12 13 14 15 16 17 18 19 20 21 22 23 24 25 26 27 28 29 30 31 32 33 34 35 36 37 38 39 40 41 42 43 44 45 46 47 48 49 50
000
ASUS45 KABQ 311110
RWRNM
WEATHER ROUNDUP FOR NEW MEXICO
NATIONAL WEATHER SERVICE ALBUQUERQUE NM
400 AM MST SAT JAN 31 2015

NOTE: "FAIR" MEANS FEW OR NO CLOUDS BELOW 12,000 FEET AGL WITH NO
       SIGNIFICANT WEATHER OR OBSTRUCTIONS TO VISION.

      THIS PRODUCT IS RELEASED AS TWO VERSIONS.  ONE VERSION NEAR
      THE TOP OF THE HOUR CONTAINING PRELIMINARY DATA FROM ALBUQUERQUE
      AND OTHER STATIONS.  A FINAL VERSION WITH ADDITIONAL DATA IS
      ISSUED ABOUT 10 MINUTES AFTER THE HOUR.

NMZ501-503-504-510>518-311200-
NORTHWEST PLATEAU/NORTHCENTRAL MOUNTAINS

CITY           SKY/WX    TMP DP  RH WIND       PRES   REMARKS
FARMINGTON     LGT SNOW  33  32  96 NE5       29.89F FOG     WCI  29
LOS ALAMOS     LGT SNOW  28  28 100 S8        29.94F WCI  20
SANTA FE       LGT SNOW  30  27  88 S6        29.94F FOG     WCI  24
TAOS           CLOUDY    28  25  86 CALM      29.95F
ANGEL FIRE     CLOUDY    29  28  95 SE5       29.91F WCI  24

$$
NMZ402-403-502-505>509-311200-
WESTCENTRAL MOUNTAINS/SOUTHWEST MOUNTAINS

CITY           SKY/WX    TMP DP  RH WIND       PRES   REMARKS
GALLUP         CLOUDY    33  32  96 E3        29.88F
GRANTS         FLURRIES  31  31  97 S9        29.93S WCI  23
SILVER CITY    CLOUDY    39  39 100 SE3       29.91F

$$
NMZ407-409-411-412-311200-
SOUTHERN DESERTS

CITY           SKY/WX    TMP DP  RH WIND       PRES   REMARKS
LORDSBURG      CLOUDY    41  41 100 S7        29.88F
DEMING         CLOUDY    42  42 100 E8        29.91S
LAS CRUCES     CLOUDY    41  40  97 SE6       29.92S
HOLLOMAN AFB   CLOUDY    42  42 100 NW3       29.91F
ALAMOGORDO     CLOUDY    41  41 100 NW5       29.93F
T OR C         LGT RAIN  40  40 100 NE3       29.90F

$$
NMZ519>523-311200-
CENTRAL VALLEYS/CENTRAL HIGHLANDS

CITY           SKY/WX    TMP DP  RH WIND       PRES   REMARKS
ALBUQUERQUE    FLURRIES  33  32  96 N5        29.93F WCI  29
DOUBLE EAGLE   LGT SNOW  31  30  96 N7        29.93F WCI  24
MORIARTY ARPT  FLURRIES  29  28  94 CALM      29.96F
CLINES CORNERS NOT AVBL
BELEN          LGT RAIN  33  33 100 NW7       29.94S WCI  27
SOCORRO        DRIZZLE   38  38 100 CALM      29.92F

$$
NMZ524>526-539-540-311200-
SOUTHCENTRAL MOUNTAINS

CITY           SKY/WX    TMP DP  RH WIND       PRES   REMARKS
RUIDOSO        FOG       28  28 100 E6        29.96F VSB<1/4 WCI  22

$$
NMZ527>531-311200-
NORTHEAST HIGHLANDS/NORTHEAST PLAINS

CITY           SKY/WX    TMP DP  RH WIND       PRES   REMARKS
LAS VEGAS      CLOUDY    26  25  96 S8        29.95F WCI  18
RATON          FOG       29  28  96 S6        29.95F VSB 1/2 WCI  23
CLAYTON        CLOUDY    32  30  92 S14       29.97F WCI  22

$$
NMZ532>537-311200-
EASTCENTRAL PLAINS

CITY           SKY/WX    TMP DP  RH WIND       PRES   REMARKS
TUCUMCARI      CLOUDY    35  34  96 SE3       30.01F FOG
CANNON AFB     CLOUDY    34  33  99 SE6       30.01F FOG     WCI  28
CLOVIS AIRPORT CLOUDY    34  30  86 SE8       30.02F WCI  27

$$
NMZ028-029-538-311200-
SOUTHEAST PLAINS

CITY           SKY/WX    TMP DP  RH WIND       PRES   REMARKS
ROSWELL        LGT RAIN  38  36  92 CALM      30.00F FOG
ARTESIA        CLOUDY    37  37 100 CALM      30.02F FOG
CARLSBAD       LGT RAIN  40  38  93 NW3       29.99F FOG
HOBBS          LGT RAIN  37  37 100 E9        30.02F WCI  31


$$


USA.gov is the U.S. government's official web portal to all federal, state and local government web resources and services.